Elwood, KS

3:51 PM CST on February 25, 2017 (GMT -0600)
Rosecrans Memorial

Weather History for KSTJ - August, 2013

Change the Weather History Date:

Friday, August 23, 2013

  Actual Average Record
Temperature  
Mean Temperature 78 °F 74 °F  
Max Temperature 91 °F 86 °F 102 °F (1936)
Min Temperature 65 °F 63 °F 46 °F (1966)
Degree Days  
Heating Degree Days 0 0  
Month to date heating degree days 0 0  
Since 1 June heating degree days 17 9  
Since 1 July heating degree days 2 1  
Cooling Degree Days 13 9  
Month to date cooling degree days 192 256  
Year to date cooling degree days 939 1010  
Since 1 June cooling degree days 813 897  
Growing Degree Days 28 (Base 50)    
Moisture  
Dew Point 67 °F    
Average Humidity 74    
Maximum Humidity 100    
Minimum Humidity 47    
Precipitation  
Precipitation 0.00 in 0.14 in 1.95 in (1906)
Month to date precipitation 1.26 2.84  
Year to date precipitation 19.67 25.16  
Sea Level Pressure  
Sea Level Pressure 30.05 in    
Wind  
Wind Speed 5 mph (SSE)    
Max Wind Speed 16 mph    
Max Gust Speed 21 mph    
Visibility 6 miles    
Events Fog    
T = Trace of Precipitation, MM = Missing Value Source: NWS Daily Summary

Daily Weather History Graph

Daily Weather History Graph

Search for Another Location

Airport or City:

Trip Planner

Search our weather history database for the weather conditions in past years. The results will help you decide how hot, cold, wet, or windy it might be!

Date:

Astronomy

Aug. 23, 2013 Rise Set
Actual Time 6:39 AM CDT 8:04 PM CDT
Civil Twilight 6:11 AM CDT 8:32 PM CDT
Nautical Twilight 5:37 AM CDT 9:06 PM CDT
Astronomical Twilight 5:01 AM CDT 9:41 PM CDT
Moon 9:24 PM CDT (8/23) 9:35 AM CDT (8/23)
Length of Visible Light 14h 21m
Length of Day
13h 24m
Waning Gibbous, 91% of the Moon is Illuminated
Aug 23
Waning Gibbous
Aug 28
Last Quarter
Sep 5
New
Sep 12
First Quarter
Sep 19
Full

Hourly Weather History & Observations

Time (CDT) Temp. Heat Index Dew Point Humidity Pressure Visibility Wind Dir Wind Speed Gust Speed Precip Events Conditions
12:53 AM 69.1 °F - 66.9 °F 93% 30.04 in 7.0 mi Calm Calm - N/A   Clear
1:53 AM 69.1 °F - 66.0 °F 90% 30.04 in 7.0 mi Calm Calm - N/A   Clear
2:53 AM 69.1 °F - 68.0 °F 96% 30.05 in 3.0 mi Calm Calm - N/A   Partly Cloudy
3:53 AM 69.1 °F - 68.0 °F 96% 30.05 in 4.0 mi Calm Calm - N/A   Clear
4:53 AM 68.0 °F - 66.9 °F 96% 30.05 in 5.0 mi Calm Calm - N/A   Clear
5:42 AM 66.2 °F - 66.2 °F 100% 30.07 in 0.8 mi Calm Calm - N/A   Mist
5:50 AM 66.2 °F - 66.2 °F 100% 30.07 in 0.5 mi Calm Calm - N/A Fog Fog
5:53 AM 66.9 °F - 66.0 °F 97% 30.05 in 1.2 mi Calm Calm - N/A   Partly Cloudy
6:14 AM 66.2 °F - 64.4 °F 94% 30.07 in 1.0 mi Calm Calm - N/A   Mist
6:27 AM 64.4 °F - 64.4 °F 100% 30.08 in 3.0 mi Calm Calm - N/A   Mostly Cloudy
6:33 AM 64.4 °F - 64.4 °F 100% 30.08 in 1.5 mi Calm Calm - N/A   Mostly Cloudy
6:37 AM 64.4 °F - 64.4 °F 100% 30.08 in 0.5 mi Calm Calm - N/A Fog Fog
6:46 AM 66.2 °F - 66.2 °F 100% 30.08 in 0.8 mi Calm Calm - N/A   Mist
6:53 AM 66.0 °F - 64.9 °F 96% 30.06 in 1.2 mi Calm Calm - N/A   Mostly Cloudy
6:59 AM 66.2 °F - 66.2 °F 100% 30.08 in 3.0 mi Calm Calm - N/A   Mostly Cloudy
7:11 AM 66.2 °F - 66.2 °F 100% 30.09 in 2.0 mi Calm Calm - N/A   Mostly Cloudy
7:13 AM 66.2 °F - 66.2 °F 100% 30.09 in 3.0 mi Calm Calm - N/A   Overcast
7:53 AM 70.0 °F - 68.0 °F 93% 30.07 in 3.0 mi Calm Calm - N/A   Overcast
8:53 AM 75.9 °F - 71.1 °F 85% 30.07 in 6.0 mi Calm Calm - N/A   Haze
9:53 AM 79.0 °F - 72.0 °F 79% 30.08 in 7.0 mi Calm Calm - N/A   Clear
10:53 AM 82.0 °F 86.3 °F 71.1 °F 69% 30.08 in 10.0 mi South 3.5 mph - N/A   Clear
11:53 AM 84.9 °F 90.1 °F 71.1 °F 63% 30.07 in 10.0 mi South 3.5 mph - N/A   Clear
12:53 PM 88.0 °F 92.9 °F 70.0 °F 55% 30.05 in 10.0 mi South 10.4 mph - N/A   Clear
1:53 PM 90.0 °F 93.6 °F 68.0 °F 48% 30.03 in 10.0 mi SSE 10.4 mph - N/A   Partly Cloudy
2:53 PM 90.0 °F 93.6 °F 68.0 °F 48% 30.01 in 10.0 mi SSE 11.5 mph - N/A   Partly Cloudy
3:53 PM 91.0 °F 95.2 °F 68.0 °F 47% 30.00 in 10.0 mi SSE 13.8 mph - N/A   Partly Cloudy
4:53 PM 89.1 °F 92.1 °F 66.9 °F 48% 29.99 in 10.0 mi South 9.2 mph - N/A   Clear
5:53 PM 89.1 °F 92.9 °F 68.0 °F 50% 29.99 in 10.0 mi SE 10.4 mph - N/A   Clear
6:53 PM 86.0 °F 89.4 °F 68.0 °F 55% 29.99 in 10.0 mi SE 6.9 mph - N/A   Clear
7:53 PM 84.0 °F 86.5 °F 66.9 °F 56% 29.99 in 10.0 mi SE 8.1 mph - N/A   Clear
8:53 PM 81.0 °F 83.3 °F 66.9 °F 62% 30.00 in 10.0 mi SE 9.2 mph - N/A   Clear
9:53 PM 80.1 °F 82.7 °F 68.0 °F 67% 30.01 in 10.0 mi SE 9.2 mph - N/A   Clear
10:53 PM 75.9 °F - 68.0 °F 76% 30.02 in 10.0 mi SSE 4.6 mph - N/A   Clear
11:53 PM 73.0 °F - 68.0 °F 84% 30.02 in 10.0 mi Calm Calm - N/A   Clear